Change the Weather History Date:

Sunday, November 10, 2013

  Actual Average Record
Temperature  
Mean Temperature 36 °F -  
Max Temperature 42 °F 38 °F 64 °F (1954)
Min Temperature 28 °F 26 °F 4 °F (1979)
Degree Days  
Heating Degree Days 29    
Moisture  
Dew Point 28 °F    
Average Humidity 70    
Maximum Humidity 93    
Minimum Humidity 53    
Precipitation  
Precipitation 0.00 in - - ()
Sea Level Pressure  
Sea Level Pressure 30.16 in    
Wind  
Wind Speed 13 mph (WSW)    
Max Wind Speed 22 mph    
Max Gust Speed 33 mph    
Visibility 10 miles    
Events Rain    
Averages and records for this station are not official NWS values.
T = Trace of Precipitation, MM = Missing Value Source: NWS Daily Summary

Daily Weather History Graph

Daily Weather History Graph

Search for Another Location

Airport or City:

Trip Planner

Search our weather history database for the weather conditions in past years. The results will help you decide how hot, cold, wet, or windy it might be!

Date:

Astronomy

Nov. 10, 2013 Rise Set
Actual Time 7:03 AM CST 4:39 PM CST
Civil Twilight 6:31 AM CST 5:12 PM CST
Nautical Twilight 5:54 AM CST 5:48 PM CST
Astronomical Twilight 5:19 AM CST 6:24 PM CST
Moon 1:09 PM CST (11/10) No Moon Set
Length of Visible Light 10h 40m
Length of Day
9h 35m
First Quarter, 56% of the Moon is Illuminated
Nov 10
First Quarter
Nov 17
Full
Nov 25
Last Quarter
Dec 2
New
Dec 9
First Quarter

Hourly Weather History & Observations

Time (CST) Temp. Windchill Dew Point Humidity Pressure Visibility Wind Dir Wind Speed Gust Speed Precip Events Conditions
12:14 AM 37.4 °F 29.3 °F 30.2 °F 75% 30.11 in 10.0 mi WNW 12.7 mph 17.3 mph N/A   Overcast
12:33 AM 37.4 °F 28.2 °F 30.2 °F 75% 30.12 in 10.0 mi WNW 16.1 mph - N/A   Overcast
12:54 AM 37.4 °F 28.5 °F 30.2 °F 75% 30.13 in 10.0 mi WNW 15.0 mph 20.7 mph N/A   Overcast
1:13 AM 37.4 °F 28.9 °F 30.2 °F 75% 30.14 in 10.0 mi WNW 13.8 mph 19.6 mph N/A   Overcast
1:33 AM 37.4 °F 28.9 °F 30.2 °F 75% 30.15 in 10.0 mi West 13.8 mph 24.2 mph N/A   Overcast
1:54 AM 37.4 °F 29.3 °F 30.2 °F 75% 30.15 in 10.0 mi WNW 12.7 mph 17.3 mph N/A   Overcast
2:13 AM 37.4 °F 28.9 °F 30.2 °F 75% 30.16 in 10.0 mi WNW 13.8 mph - N/A   Overcast
2:33 AM 37.4 °F 31.4 °F 32.0 °F 81% 30.17 in 7.0 mi WNW 8.1 mph - N/A   Drizzle
2:54 AM 37.4 °F 29.8 °F 30.2 °F 75% 30.18 in 10.0 mi WNW 11.5 mph - N/A   Overcast
3:13 AM 37.4 °F 32.1 °F 30.2 °F 75% 30.19 in 10.0 mi West 6.9 mph - N/A   Light Drizzle
3:33 AM 37.4 °F 29.8 °F 30.2 °F 75% 30.20 in 10.0 mi WNW 11.5 mph - N/A   Overcast
3:54 AM 37.4 °F 29.8 °F 28.4 °F 70% 30.20 in 10.0 mi WNW 11.5 mph - N/A   Mostly Cloudy
4:13 AM 37.4 °F 30.8 °F 28.4 °F 70% 30.20 in 10.0 mi WNW 9.2 mph - N/A   Mostly Cloudy
4:33 AM 37.4 °F 30.8 °F 30.2 °F 75% 30.22 in 10.0 mi West 9.2 mph - N/A   Scattered Clouds
4:53 AM 37.4 °F 30.3 °F 30.2 °F 75% 30.23 in 10.0 mi WNW 10.4 mph - N/A   Mostly Cloudy
5:14 AM 37.4 °F 30.8 °F 30.2 °F 75% 30.24 in 10.0 mi West 9.2 mph - N/A   Overcast
5:33 AM 35.6 °F 30.7 °F 30.2 °F 81% 30.24 in 10.0 mi West 5.8 mph - N/A   Overcast
5:53 AM 35.6 °F 30.7 °F 30.2 °F 81% 30.25 in 10.0 mi WSW 5.8 mph - N/A   Overcast
6:14 AM 35.6 °F 29.9 °F 30.2 °F 81% 30.25 in 10.0 mi WSW 6.9 mph - N/A   Mostly Cloudy
6:33 AM 35.6 °F 29.2 °F 30.2 °F 81% 30.25 in 10.0 mi WSW 8.1 mph - N/A   Scattered Clouds
6:53 AM 35.6 °F 28.6 °F 28.4 °F 75% 30.25 in 10.0 mi West 9.2 mph - N/A   Mostly Cloudy
7:14 AM 35.6 °F 29.9 °F 28.4 °F 75% 30.25 in 10.0 mi SW 6.9 mph - N/A   Overcast
7:33 AM 35.6 °F 29.9 °F 28.4 °F 75% 30.25 in 10.0 mi WSW 6.9 mph - N/A   Overcast
7:53 AM 35.6 °F 30.7 °F 28.4 °F 75% 30.25 in 10.0 mi WSW 5.8 mph - N/A   Overcast
8:13 AM 35.6 °F 29.2 °F 30.2 °F 81% 30.25 in 10.0 mi SW 8.1 mph - N/A   Overcast
8:33 AM 35.6 °F 28.6 °F 30.2 °F 81% 30.26 in 10.0 mi SW 9.2 mph - N/A   Overcast
8:54 AM 35.6 °F 29.2 °F 28.4 °F 75% 30.26 in 10.0 mi WSW 8.1 mph - N/A   Overcast
9:13 AM 35.6 °F 29.2 °F 28.4 °F 75% 30.26 in 10.0 mi WSW 8.1 mph - N/A   Overcast
9:33 AM 37.4 °F 30.3 °F 28.4 °F 70% 30.26 in 10.0 mi WSW 10.4 mph - N/A   Overcast
9:54 AM 37.4 °F 28.9 °F 26.6 °F 65% 30.24 in 10.0 mi SW 13.8 mph - N/A   Mostly Cloudy
10:13 AM 37.4 °F 28.9 °F 26.6 °F 65% 30.24 in 10.0 mi SW 13.8 mph 18.4 mph N/A   Scattered Clouds
10:34 AM 37.4 °F 28.9 °F 26.6 °F 65% 30.24 in 10.0 mi WSW 13.8 mph 17.3 mph N/A   Scattered Clouds
10:53 AM 37.4 °F 29.8 °F 26.6 °F 65% 30.23 in 10.0 mi SW 11.5 mph - N/A   Scattered Clouds
11:13 AM 39.2 °F 30.2 °F 26.6 °F 61% 30.22 in 10.0 mi WSW 17.3 mph - N/A   Clear
11:34 AM 39.2 °F 31.2 °F 26.6 °F 61% 30.21 in 10.0 mi SW 13.8 mph 20.7 mph N/A   Clear
11:53 AM 39.2 °F 31.2 °F 26.6 °F 61% 30.20 in 10.0 mi WSW 13.8 mph - N/A   Clear
12:13 PM 39.2 °F 31.6 °F 26.6 °F 61% 30.19 in 10.0 mi WSW 12.7 mph - N/A   Clear
12:33 PM 41.0 °F 32.5 °F 26.6 °F 57% 30.18 in 10.0 mi WSW 17.3 mph - N/A   Clear
12:53 PM 41.0 °F 33.9 °F 26.6 °F 57% 30.17 in 10.0 mi WSW 12.7 mph - N/A   Clear
1:14 PM 41.0 °F 32.2 °F 26.6 °F 57% 30.16 in 10.0 mi WSW 18.4 mph - N/A   Clear
1:33 PM 41.0 °F 32.8 °F 26.6 °F 57% 30.15 in 10.0 mi SW 16.1 mph - N/A   Clear
1:53 PM 42.8 °F 35.8 °F 28.4 °F 57% 30.14 in 10.0 mi SW 13.8 mph - N/A   Clear
2:14 PM 42.8 °F 34.8 °F 26.6 °F 53% 30.13 in 10.0 mi WSW 17.3 mph 24.2 mph N/A   Clear
2:33 PM 42.8 °F 35.1 °F 26.6 °F 53% 30.13 in 10.0 mi SW 16.1 mph 23.0 mph N/A   Clear
2:53 PM 42.8 °F 34.5 °F 26.6 °F 53% 30.11 in 10.0 mi SW 18.4 mph - N/A   Clear
3:14 PM 42.8 °F 35.1 °F 26.6 °F 53% 30.11 in 10.0 mi SW 16.1 mph 23.0 mph N/A   Clear
3:33 PM 42.8 °F 35.8 °F 26.6 °F 53% 30.11 in 10.0 mi WSW 13.8 mph 24.2 mph N/A   Clear
3:53 PM 42.8 °F 35.8 °F 26.6 °F 53% 30.10 in 10.0 mi SW 13.8 mph - N/A   Clear
4:14 PM 42.8 °F 35.8 °F 26.6 °F 53% 30.10 in 10.0 mi SW 13.8 mph - N/A   Clear
4:33 PM 41.0 °F 31.6 °F 26.6 °F 57% 30.10 in 10.0 mi SW 20.7 mph 24.2 mph N/A   Clear
4:53 PM 39.2 °F 30.5 °F 26.6 °F 61% 30.09 in 10.0 mi SW 16.1 mph - N/A   Clear
5:13 PM 39.2 °F 31.2 °F 26.6 °F 61% 30.09 in 10.0 mi SW 13.8 mph - N/A   Clear
5:33 PM 39.2 °F 31.6 °F 26.6 °F 61% 30.09 in 10.0 mi SW 12.7 mph - N/A   Clear
5:53 PM 39.2 °F 32.5 °F 28.4 °F 65% 30.09 in 10.0 mi SW 10.4 mph - N/A   Clear
6:13 PM 39.2 °F 31.6 °F 28.4 °F 65% 30.09 in 10.0 mi SW 12.7 mph - N/A   Scattered Clouds
6:33 PM 39.2 °F 31.2 °F 28.4 °F 65% 30.08 in 10.0 mi SW 13.8 mph - N/A   Mostly Cloudy
6:53 PM 39.2 °F 31.2 °F 28.4 °F 65% 30.08 in 10.0 mi SW 13.8 mph - N/A   Overcast
7:14 PM 39.2 °F 30.8 °F 28.4 °F 65% 30.08 in 10.0 mi SW 15.0 mph - N/A   Overcast
7:33 PM 39.2 °F 31.6 °F 28.4 °F 65% 30.08 in 10.0 mi SW 12.7 mph - N/A   Overcast
7:53 PM 39.2 °F 31.2 °F 28.4 °F 65% 30.07 in 10.0 mi SW 13.8 mph - N/A   Overcast
8:14 PM 39.2 °F 29.3 °F 30.2 °F 70% 30.07 in 10.0 mi WSW 20.7 mph - N/A   Light Drizzle
8:33 PM 37.4 °F 28.2 °F 30.2 °F 75% 30.07 in 10.0 mi WSW 16.1 mph 19.6 mph N/A   Light Drizzle
8:53 PM 37.4 °F 28.5 °F 30.2 °F 75% 30.08 in 10.0 mi WSW 15.0 mph - N/A   Light Drizzle
9:14 PM 37.4 °F 28.9 °F 32.0 °F 81% 30.08 in 10.0 mi WSW 13.8 mph - N/A Rain Light Rain
9:33 PM 35.6 °F 26.6 °F 32.0 °F 87% 30.08 in 10.0 mi WSW 13.8 mph - N/A   Overcast
9:53 PM 33.8 °F 24.8 °F 32.0 °F 93% 30.08 in 10.0 mi WSW 12.7 mph - N/A   Overcast
10:14 PM 33.8 °F 24.8 °F 32.0 °F 93% 30.08 in 10.0 mi WSW 12.7 mph - N/A   Overcast
10:33 PM 33.8 °F 23.5 °F 32.0 °F 93% 30.09 in 5.0 mi NNW 16.1 mph 21.9 mph N/A   Overcast
10:53 PM 32.0 °F 21.6 °F 26.6 °F 80% 30.10 in 10.0 mi NW 15.0 mph 27.6 mph N/A   Overcast
11:13 PM 32.0 °F 21.2 °F 26.6 °F 80% 30.11 in 10.0 mi NW 16.1 mph 23.0 mph N/A   Overcast
11:33 PM 30.2 °F 17.1 °F 21.2 °F 69% 30.12 in 10.0 mi WNW 21.9 mph 33.4 mph N/A   Overcast
11:54 PM 28.4 °F 15.4 °F 17.6 °F 64% 30.13 in 10.0 mi NNW 19.6 mph 28.8 mph N/A   Mostly Cloudy